Location: Beauthoville
(49.0143°N, 1.7710°E)
Time: 14:31:40
(UTC+00:00)

Daily predictions for brighter satellites

Satellite Brightness Start Highest point End
(mag) Time Altitude Azimuth Time Altitude Azimuth Time Altitude Azimuth
AQUARIUS 4.3 17:21:41 10° SSE 17:26:09 83° WSW 17:30:40 10° NNW
Cosmos 468 Rocket 4.3 17:22:10 10° NNW 17:27:09 45° ENE 17:32:03 10° SE
Cosmos 1844 Rocket 2.9 17:24:44 10° NNW 17:30:09 48° NE 17:35:32 10° SE
COSMO-SKYMED 1 3.3 17:27:48 10° NNE 17:31:47 34° E 17:35:44 10° SSE
COBE Rocket 4.3 17:30:22 10° S 17:35:04 68° W 17:39:43 10° NNW
SL-08 R/B 3.4 17:31:43 10° NNE 17:36:41 75° ESE 17:41:37 10° S
Cosmos 1328 3.7 17:35:51 10° S 17:39:48 75° E 17:43:46 10° NNE
Lacrosse 5 2.3 17:35:03 10° SSW 17:39:56 49° SE 17:44:52 10° ENE
Cosmos 1954 Rocket 4.3 17:35:28 10° S 17:40:29 47° ESE 17:45:29 10° NNE
USA 215 3.5 17:34:40 10° SE 17:41:13 75° SW 17:47:48 10° WNW
CZ-4B DEB 4.4 17:37:07 10° SE 17:42:22 51° ENE 17:47:41 10° N
Cosmos 1763 Rocket 3.4 17:37:39 10° NNW 17:42:51 71° ENE 17:47:56 10° SSE
CZ-4B R/B 3.9 17:38:58 10° ESE 17:43:37 31° ENE 17:48:20 10° N
Lacrosse 5 rocket 1.3 17:40:15 10° NW 17:43:44 48° NNE 17:47:17 10° ESE
Cosmos 1726 Rocket 3.9 17:41:03 10° N 17:45:08 40° ENE 17:49:13 10° SE
Cosmos 1461 3.7 17:41:25 10° S 17:45:19 36° ESE 17:49:25 10° NE
Meteor 1-11 4.5 17:40:23 10° SSE 17:45:57 49° E 17:51:31 10° NNE
ATLAS 2AS CENTAUR R/B 2.8 17:39:41 10° NW 17:46:48 86° SW 17:53:28 10° SE
Cosmos 1892 2.7 17:43:22 10° S 17:47:01 53° E 17:50:42 10° NNE
Cosmos 1844 3.8 17:43:42 10° NNW 17:49:27 58° ENE 17:55:07 10° SE
SL-08 ROCKET BODY 4.3 17:44:00 10° N 17:49:55 77° E 17:55:44 10° SSE
IKONOS-2 4.5 17:46:39 10° NNE 17:50:57 83° ESE 17:55:11 10° SSW
Gblst 52 Del rocket 4.2 17:46:40 10° WSW 17:52:21 75° SSE 17:57:11 14° ENE
Cosmos 1825 2.6 17:50:05 10° SSE 17:53:32 38° E 17:56:59 10° NNE
Cosmos 540 Rocket 3.5 17:48:56 10° NNW 17:54:03 58° ENE 17:59:06 10° SE
Cosmos 2219 Rocket 3.5 17:51:09 10° SE 17:54:50 18° E 17:57:32 13° ENE
Cosmos 2278 4.2 17:49:20 10° SW 17:54:57 64° WNW 18:00:39 10° NNE
Cosmos 2360 Rocket 2.7 17:49:55 10° S 17:55:04 38° ESE 18:00:17 10° NE
Cosmos 841 Rocket 3.9 17:51:20 10° NNW 17:56:19 40° ENE 18:01:15 10° SE
CZ-4C R/B 3.3 17:57:37 10° NNE 18:01:22 51° E 18:04:54 10° S
Cosmos 2278 Rocket 3.7 17:59:51 10° N 18:03:43 18° NE 18:05:54 15° ENE
CZ-4 R/B 2.3 18:00:37 10° ESE 18:04:03 26° ENE 18:07:28 10° N
Okean O Rocket 2.5 18:02:29 10° ESE 18:06:13 28° ENE 18:10:00 10° N
Cosmos 2333 Rocket 2.9 18:01:56 10° SSE 18:06:52 32° ESE 18:11:22 12° NE
Cosmos 2322 Rocket 2.2 18:02:19 10° SSW 18:07:52 68° ESE 18:13:27 10° NNE
USA 281 4.4 18:03:26 10° NNE 18:09:27 39° NW 18:15:27 10° WSW
BlueWalker 3 2.6 18:09:00 10° WNW 18:12:44 43° N 18:14:55 22° ENE
SKYMED 3 4.4 18:08:44 10° NNE 18:12:50 60° E 18:16:56 10° S
RESURS DK-1 2.2 18:08:50 10° NNW 18:12:58 74° ENE 18:17:04 10° SE
Cosmos 1340 2.9 18:10:18 10° N 18:13:48 40° ENE 18:17:16 10° SE
ATLAS 5 CENTAUR R/B 3.8 18:11:50 10° NW 18:14:06 14° N 18:16:33 10° NNE
IRIDIUM 103 4.4 18:14:21 10° N 18:19:30 56° E 18:24:37 10° SSE
SKYMED 2 3.6 18:15:42 10° NNE 18:20:04 82° WNW 18:24:24 10° SSW
ISS -0.7 18:19:05 10° WSW 18:20:50 13° SW 18:22:35 10° SSW
Cosmos 1606 3.7 18:17:55 10° NNE 18:20:57 25° ENE 18:20:57 25° ENE
SL-4 R/B 1.8 18:17:47 10° WNW 18:21:16 58° N 18:22:55 29° ENE
COSMOS 2428 4.0 18:18:22 10° SE 18:21:43 18° ESE 18:21:43 18° ESE
In-Cosmos 22 Rocket 4.2 18:16:50 10° S 18:22:39 77° E 18:28:30 10° NNE
SL-16 R/B 2.5 18:17:33 10° SW 18:23:13 71° WNW 18:28:55 10° NNE
Cosmos 676 Rocket 4.0 18:19:57 10° SSW 18:25:15 86° WNW 18:30:33 10° NNE
Cosmos 2058 Rocket 3.0 18:21:05 10° N 18:25:28 60° ENE 18:29:50 10° SSE
IGS 5A 4.2 18:26:03 27° E 18:27:00 30° ENE 18:30:36 10° N
Cosmos 1553 Rocket 3.9 18:21:00 10° S 18:27:00 63° E 18:33:06 10° NNE
SL-08 R/B 4.4 18:21:29 10° N 18:27:46 75° E 18:34:04 10° SSE
MOS 1-B 4.3 18:22:15 10° SSE 18:28:00 70° ENE 18:33:48 10° NNW
YAOGAN 1 2.4 18:24:41 10° SSE 18:28:58 73° ENE 18:33:18 10° N
CSL-04 Rocket 4.4 18:29:40 24° E 18:31:23 29° ENE 18:35:59 10° N
Cosmos 1980 Rocket 4.2 18:30:03 10° W 18:34:29 23° NW 18:38:57 10° N
Feng Yun 1-1 Rocket 4.3 18:29:24 10° SE 18:34:44 50° ENE 18:39:59 10° N
Genesis I 3.2 18:33:31 10° SSW 18:37:26 64° SE 18:38:52 36° ENE
IRIDIUM 106 4.2 18:32:34 10° N 18:37:50 80° E 18:43:03 10° S
BREEZE-M DEB (TANK) 3.9 18:23:19 10° SW 18:37:57 50° SSE 18:40:19 29° E
Cosmos 1633 2.4 18:34:47 10° SSW 18:38:07 77° W 18:41:30 10° N
Cosmos 1943 Rocket 3.9 18:35:47 10° N 18:38:56 15° NNE 18:39:19 15° NE
Cosmos 2322 4.2 18:42:19 10° S 18:47:32 38° ESE 18:48:46 34° E
Cosmos 44 Rocket 3.4 18:46:30 10° SSW 18:50:59 47° ESE 18:51:43 43° E
Cosmos 1869 3.9 18:50:57 10° NNW 18:54:47 57° W 18:58:39 10° S
ATLAS CENTAUR R/B 3.9 18:54:47 10° WNW 18:57:56 18° NNW 19:00:39 11° NNE
S3M 3.9 18:56:27 10° S 19:02:48 71° E 19:09:10 10° NNE
Cosmos 1892 Rocket 4.4 19:00:57 10° SSW 19:05:15 50° WNW 19:09:32 10° N
Landsat 7 4.1 19:11:41 49° NE 19:11:41 49° NE 19:15:36 10° N
Cosmos 1844 Rocket 4.4 19:08:59 10° NW 19:13:50 32° WSW 19:18:41 10° SSW
SJ-6B 3.9 19:18:32 35° N 19:18:32 35° N 19:20:56 10° N
Lacrosse 4 Rocket 3.9 19:16:07 10° N 19:16:37 11° N 19:16:37 11° N
Resurs 01 Rocket 4.0 19:22:57 12° N 19:22:57 12° N 19:23:17 10° N
Lacrosse 5 rocket 2.5 19:19:15 10° WNW 19:22:29 31° SW 19:22:52 30° SSW
Lacrosse 5 2.4 19:17:58 10° WSW 19:22:58 52° NNW 19:24:05 43° NNE
CZ-4B R/B 4.1 19:18:49 10° S 19:23:58 48° W 19:29:15 10° NNW
Cosmos 1461 4.3 19:20:06 10° WSW 19:24:10 38° NW 19:25:36 29° N
Cosmos 2315 Rocket 3.9 19:18:09 10° S 19:24:23 64° E 19:30:42 10° NNE
Spot 1 4.1 19:25:56 68° WSW 19:25:56 68° WSW 19:29:37 10° SSW
BREEZE-M DEB (TANK) 3.9 19:24:18 10° W 19:28:15 57° S 19:30:46 39° SE
Cosmos 1814 Rocket 4.0 19:23:25 10° NNW 19:28:48 82° WSW 19:30:18 49° S
Cosmos 1850 Rocket 4.5 19:30:01 10° SW 19:35:07 57° WNW 19:37:49 27° N
Cosmos 2219 Rocket 2.2 19:32:29 10° SSW 19:38:04 80° WNW 19:39:20 55° NNE
CZ-4 R/B 3.1 19:35:06 10° SSW 19:38:50 33° W 19:42:32 10° NNW
Cosmos 1626 Rocket 4.5 19:34:42 10° SSW 19:37:38 41° SW 19:37:38 41° SW
Cosmos 2360 Rocket 3.3 19:33:42 10° WSW 19:39:02 42° NW 19:43:00 17° NNE
USA 81 4.2 19:35:44 10° SSW 19:40:58 69° W 19:46:16 10° N
Okean O Rocket 3.0 19:38:22 10° SSW 19:42:26 36° W 19:46:33 10° NNW
Gblst 52 Del rocket 4.2 19:38:40 10° W 19:44:07 68° N 19:44:07 68° N
Okean-O 4.4 19:48:55 24° NNW 19:48:55 24° NNW 19:50:43 10° NNW
Cosmos 2278 Rocket 2.5 19:43:11 10° NNW 19:47:46 56° N 19:47:46 56° N
Cosmos 2333 Rocket 3.0 19:45:28 10° SW 19:50:57 49° NW 19:53:26 30° N
BlueWalker 3 3.9 19:47:49 10° WNW 19:49:43 27° WNW 19:49:43 27° WNW
Cosmos 2322 Rocket 4.0 19:47:43 10° WSW 19:52:24 27° NW 19:56:27 13° N
ATLAS 5 CENTAUR R/B 4.0 19:56:47 10° NNW 19:58:21 16° N 19:58:21 16° N
SL-4 R/B 4.3 19:57:02 10° WNW 19:58:14 20° WNW 19:58:14 20° WNW
Cosmos 2369 Rocket 4.4 19:59:59 10° N 20:01:13 14° N 20:01:13 14° N
COSMOS 2428 3.5 20:00:03 10° SSW 20:03:49 44° SW 20:03:49 44° SW
CSL-04 Rocket 4.4 20:11:17 49° WSW 20:11:29 49° W 20:16:44 10° NNW
Cosmos 1943 Rocket 3.9 20:18:31 10° NNW 20:20:51 24° N 20:20:51 24° N
